Location: Columbus
(29.5618°N, 96.6770°W)
Time: 05:44:51
(UTC-05:00)

Daily predictions for brighter satellites

Satellite Brightness Start Highest point End
(mag) Time Altitude Azimuth Time Altitude Azimuth Time Altitude Azimuth
H-2A R/B 4.0 00:17:20 25° WNW 00:17:20 25° WNW 00:20:06 10° NW
USA 229 DEB 4.5 00:17:50 10° NNW 00:23:13 47° NNE 00:23:13 47° NNE
USA 229 4.5 00:17:57 10° NNW 00:23:20 47° NNE 00:23:20 47° NNE
ATLAS 3B CENTAUR R/B 4.4 02:23:29 64° WSW 02:27:01 82° SSE 03:02:39 10° E
ATLAS 2AS CENTAUR R/B 3.2 02:48:19 10° NNW 02:55:57 66° NE 02:55:57 66° NE
ATLAS CENTAUR R/B 4.5 03:03:58 13° E 03:03:58 13° E 03:04:58 10° ENE
Cosmos 1943 Rocket 4.5 03:15:38 14° NW 03:15:38 14° NW 03:17:16 10° NNW
Cosmos 1464 Rocket 4.2 03:35:08 68° NE 03:35:08 68° NE 03:40:49 10° N
Resurs 1-4 Rocket 3.3 03:32:47 10° NNE 03:37:12 35° E 03:37:12 35° E
ADEOS 4.3 03:48:33 10° N 03:52:23 47° NNW 03:52:23 47° NNW
SME Rocket 4.4 03:55:33 44° ESE 03:56:38 52° ENE 04:03:10 10° N
Meteor 2-5 Rocket 4.0 03:52:38 10° N 03:58:29 66° E 03:59:14 60° ESE
Cosmos 1656 3.8 04:02:20 66° ESE 04:02:23 66° ESE 04:08:01 10° NNE
Cosmos 841 Rocket 4.5 04:04:53 36° ESE 04:05:34 38° E 04:10:26 10° NE
ASTRO E2 4.4 04:07:59 30° ENE 04:07:59 30° ENE 04:10:10 10° E
Cosmos 1513 Rocket 4.3 04:07:10 73° WNW 04:07:10 73° WNW 04:13:08 10° N
OAO 3 Rocket 3.8 04:09:20 51° ENE 04:09:20 51° ENE 04:12:58 10° E
Cosmos 1697 Rocket 3.0 04:10:27 53° SE 04:11:07 57° ESE 04:16:39 10° NNE
Cosmos 2082 4.2 04:07:15 10° N 04:12:46 56° ENE 04:16:27 21° SE
Cosmos 1763 Rocket 3.9 04:14:36 54° SE 04:15:09 56° ESE 04:20:16 10° NNE
ARIANE 5 R/B 2.7 04:11:02 10° N 04:15:36 60° NW 04:15:36 60° NW
Meteor 2-12 Rocket 4.4 04:15:23 58° SSE 04:16:35 77° E 04:22:37 10° N
Cosmos 1980 Rocket 3.4 04:15:59 29° SE 04:17:48 36° ESE 04:22:53 10° NE
Cosmos 1891 Rocket 4.5 04:21:50 56° W 04:21:54 56° W 04:27:50 10° N
Delta 7925 Rocket 3.8 04:22:53 52° SE 04:22:53 52° SE 04:26:49 10° ESE
Cosmos 44 3.9 04:17:17 10° NNW 04:20:53 46° NW 04:20:53 46° NW
SL-16 R/B 2.4 04:21:03 40° SSE 04:23:29 87° ENE 04:29:41 10° NNW
CZ-2D R/B 2.0 04:18:59 10° N 04:24:27 76° WNW 04:24:49 72° WSW
Cosmos 2227 Rocket 2.2 04:20:37 10° NNW 04:26:18 81° ENE 04:29:11 30° SSE
Cosmos 1766 3.7 04:29:22 58° NNE 04:29:22 58° NNE 04:32:37 10° N
MOS 1-B 4.2 04:23:41 10° NNE 04:29:31 86° WNW 04:30:49 57° SSW
Mugunghwa Rocket 4.1 04:31:25 48° S 04:31:25 48° S 04:37:03 10° ESE
CZ-2D R/B 3.7 04:26:44 10° NNE 04:31:03 65° E 04:31:25 62° SE
Cosmos 2034 Rocket 4.2 04:32:42 46° W 04:33:09 47° W 04:39:08 10° N
IRS-1D 4.0 04:31:25 10° N 04:35:50 42° WNW 04:35:50 42° WNW
Cosmos 2298 Rocket 3.9 04:31:32 10° NNW 04:36:49 75° WSW 04:37:54 56° S
Okean O Rocket 2.3 04:32:44 10° NNE 04:37:00 50° E 04:38:14 38° SSE
BREEZE-M DEB (TANK) 3.6 04:36:46 42° W 04:37:56 51° NW 04:41:52 10° NNE
UNK 3.6 04:39:30 67° WSW 04:39:30 67° WSW 04:44:10 10° NNW
Cosmos 405 Rocket 4.4 04:35:53 10° NNW 04:37:49 25° NW 04:37:49 25° NW
OAO 1 Rocket 4.3 04:39:30 64° SW 04:39:55 67° SSW 04:45:12 10° ESE
ATLAS CENTAUR R/B 2.2 04:40:19 45° WNW 04:40:37 46° WNW 04:45:28 10° NNE
Cosmos 1953 3.0 04:39:53 42° SE 04:40:45 50° E 04:44:41 10° NNE
Meteor 1-22 Rocket 4.4 04:43:19 48° SW 04:44:40 59° W 04:50:41 10° N
UNKNOWN OBJECT B 3.2 04:41:33 10° N 04:44:49 48° NW 04:44:49 48° NW
Cosmos 2297 Rocket 2.1 04:42:43 10° NNW 04:48:23 88° ENE 04:54:02 10° SSE
IRS-1C Rocket 4.1 04:44:32 10° NNE 04:49:49 82° ESE 04:52:06 35° S
EO 1 Del DPAF 3.8 04:53:01 43° WNW 04:53:01 43° WNW 04:56:00 10° NNW
GEOS 3 Rocket 3.5 04:47:43 10° SSE 04:52:53 63° WSW 04:58:03 10° NW
ADEOS II 4.3 04:50:13 10° NE 04:54:07 21° E 04:57:59 10° SE
Cosmos 972 4.5 04:51:02 10° NNW 04:55:46 52° W 04:56:46 44° SW
Meteor 1-24 Rocket 3.7 04:51:02 10° NNW 04:56:41 65° W 04:59:55 27° SSW
ATLAS CENTAUR R/B 4.4 04:52:00 30° SSW 04:56:54 83° ESE 05:22:34 10° NE
BREEZE-M R/B 4.3 04:51:27 10° NW 04:57:15 88° NE 05:06:15 10° SE
SL-16 R/B 4.0 04:52:47 10° SSE 04:57:25 27° ESE 05:02:05 10° NE
Cosmos 1076 Rocket 3.3 04:53:42 10° N 04:58:01 83° W 04:59:41 37° S
Nadezhda 4 Rocket 4.0 04:52:23 10° NNW 04:58:28 62° W 05:02:03 26° SSW
Cosmos 220 Rocket 4.5 04:55:36 10° NNW 04:59:07 40° W 04:59:07 40° W
CZ-2C R/B 4.2 04:57:17 10° SSE 05:01:58 65° ENE 05:06:37 10° N
PAYLOAD B 4.2 04:58:54 10° NNE 05:04:32 86° ESE 05:08:16 22° SSW
Cosmos 1805 3.1 05:04:27 45° SSW 05:05:33 81° W 05:09:29 10° N
Cosmos 1766 Rocket 3.5 05:07:30 10° NNW 05:11:52 65° W 05:14:26 24° S
Milstar 3 Cent rocket 2.7 05:08:38 27° W 05:12:01 82° S 05:22:13 10° E
Cosmos 1408 Rocket 3.6 05:07:49 10° NNW 05:12:07 57° W 05:14:12 29° SSW
Cosmos 1378 3.4 05:09:21 10° NNW 05:13:00 46° W 05:13:33 42° WSW
Cosmos-2242 3.2 05:12:40 36° SW 05:14:03 52° W 05:18:16 10° N
SL-8 R/B 3.7 05:09:48 10° WNW 05:14:28 56° SW 05:19:07 10° SSE
Okean-O 3.8 05:10:32 10° NNE 05:14:44 41° E 05:18:54 10° S
Resurs 1-4 Rocket 3.5 05:13:18 10° NNW 05:17:08 21° WNW 05:18:17 19° W
MOZ.5/SAFIR/RUBIN 5/SL-8 3.8 05:13:13 10° SSE 05:17:57 86° ENE 05:22:40 10° N
FUSE 4.2 05:15:47 30° WSW 05:18:02 48° S 05:23:08 10° ESE
Cosmos 1441 Rocket 3.4 05:16:09 10° NNW 05:20:02 53° W 05:22:09 24° SSW
Cosmos 990 Rocket 4.0 05:16:47 10° NNW 05:21:59 63° WSW 05:27:09 10° S
CZ-4B R/B 3.2 05:16:48 10° N 05:22:17 66° WNW 05:26:14 19° SSW
Cosmos 1634 Rocket 4.2 05:19:21 22° SSW 05:23:13 51° W 05:29:18 10° N
Meteor 1-21 Rocket 4.5 05:17:28 10° N 05:23:24 79° E 05:29:19 10° S
Cosmos 1733 4.2 05:22:34 10° SSE 05:26:11 45° E 05:29:48 10° NNE
Cosmos 1842 Rocket 3.5 05:22:44 15° S 05:26:24 86° W 05:30:54 10° N
Cosmos 2026 Rocket 4.0 05:23:43 10° N 05:30:06 90° S 05:36:20 10° S
CZ-4B R/B 3.0 05:26:19 10° N 05:30:09 51° WNW 05:32:13 24° SW
PSLV R/B 3.8 05:28:56 10° NNE 05:33:09 68° ESE 05:37:23 10° S
Cosmos 332 Rocket 3.7 05:31:22 15° SSW 05:35:18 80° WNW 05:40:07 10° NNE
ISS 0.1 05:37:06 10° N 05:38:30 12° NE 05:39:53 10° ENE
GPS 2-04 Rocket1 4.0 05:35:57 10° WNW 05:39:24 32° N 05:42:45 10° ENE
BREEZE-M DEB (TANK) 4.4 05:21:07 14° SW 05:40:17 86° SE 05:45:13 10° NE
Cosmos 2195 Rocket 4.5 05:34:25 10° NNW 05:40:27 63° W 05:46:27 10° S
Cosmos 1125 Rocket 3.7 05:36:43 10° NNW 05:41:55 75° ENE 05:47:05 10° SSE
CZ-3 R/B 3.1 05:24:12 16° WSW 05:46:30 68° S 05:53:01 10° E
ASTRO E2 2.8 05:42:59 11° WNW 05:46:55 80° N 05:50:58 10° E
OAO 3 Rocket 3.7 05:47:21 10° W 05:51:41 37° SSW 05:55:58 10° SE
Cosmos 1697 Rocket 4.5 05:52:12 10° W 05:55:23 16° WNW 05:58:42 10° NNW
SWIFT 3.8 05:53:43 14° SW 05:56:11 22° S 05:59:27 10° SE
Cosmos 371 Rocket 3.3 05:52:16 10° SSW 05:57:04 73° WNW 06:01:53 10° NNE
Cosmos 1470 3.2 05:54:32 10° SSW 05:58:15 42° W 06:02:01 10° N
Aurora 2 Rocket 2.6 05:55:55 14° WSW 05:58:20 39° S 06:01:59 10° ESE
Thor Agena Rocket 3.8 05:54:07 10° S 05:58:57 46° W 06:03:46 10° NNW
Cosmos 1980 Rocket 3.5 05:57:47 12° WSW 06:01:47 23° WNW 06:06:14 10° N
Cosmos 2360 Rocket 3.7 05:57:11 10° S 06:02:17 37° ESE 06:07:25 10° NE
NOSS 3-4 (A) 4.2 06:02:51 10° NW 06:09:36 45° WSW 06:16:41 10° S
NOSS 3-4 (C) 4.2 06:02:57 10° NW 06:09:45 45° WSW 06:16:52 10° S
Cosmos 2322 Rocket 2.4 06:05:14 10° SW 06:10:43 54° WNW 06:16:13 10° N
Cosmos 1674 2.9 06:08:02 10° NNW 06:11:40 47° W 06:15:15 10° SSW
Okean O Rocket 3.7 06:11:56 10° NW 06:12:54 11° WNW 06:13:51 10° W
Meteor 2-20 4.5 06:07:42 10° N 06:13:48 84° W 06:19:54 10° S
CZ-4B R/B 4.0 06:11:59 10° N 06:16:00 89° WNW 06:20:14 10° SSW
Delta 7925 Rocket 4.0 06:12:10 10° W 06:16:43 33° SSW 06:20:52 10° SE
Cosmos 1437 4.4 06:14:35 10° NW 06:16:55 18° W 06:19:15 10° SW
USA 116 3.4 06:15:45 10° S 06:18:43 45° W 06:21:45 10° NNW
Cosmos 2058 3.5 06:15:15 10° N 06:19:26 63° E 06:23:36 10° SSE
